Temperature
18 18 16 15 15 15 15 14 14 14 14 14 14 14 13 13 13 12 12 12 12 12 12 12 12 13 13 13 13 12 13 13 14 14 14 14 14 14 13 13 13 13 13
19 19 17 15 15 15 15 14 14 14 14 14 14 13 13 12 12 12 12 12 12 12 13 12 12 12 13 13 12 12 13 13 14 14 14 14 13 13 13 13 13 13 13
20 19 17 16 15 15 15 14 14 14 14 14 13 12 12 12 12 12 12 12 13 13 14 14 13 13 13 13 13 13 13 14 14 14 14 14 13 13 13 13 13 13 13
20 20 18 16 15 15 15 15 15 15 14 14 13 12 12 12 12 12 12 12 13 14 15 15 14 14 13 13 13 13 13 14 14 14 13 13 13 13 13 12 12 12 12
20 20 19 17 16 15 15 15 15 15 15 14 13 12 12 12 12 12 12 13 13 14 15 15 14 14 14 13 13 13 13 14 14 14 13 13 13 13 11 11 11 12 12
20 20 19 17 16 15 15 15 15 15 15 14 14 13 12 12 12 12 13 13 13 14 14 14 14 14 14 13 14 14 14 14 14 14 14 14 13 13 12 11 11 11 12
20 19 19 18 17 16 15 15 15 15 15 15 14 13 13 13 13 13 13 13 13 14 14 14 13 13 13 14 14 14 14 14 14 14 14 14 14 13 13 11 11 11 11
20 19 19 18 17 17 16 15 15 15 15 15 14 14 13 13 13 13 13 13 13 14 14 14 14 14 14 14 14 14 14 14 14 14 14 14 14 14 14 13 12 12 13
19 19 19 18 18 17 16 16 15 15 15 15 15 14 14 13 13 13 13 13 13 14 14 14 14 14 14 14 14 14 14 14 14 14 14 14 13 13 13 13 12 12 12
19 19 18 18 18 18 17 16 16 15 15 15 15 15 14 14 13 13 13 13 13 14 14 14 14 14 14 14 14 14 14 13 13 13 13 13 13 13 13 12 12 12 12
19 19 19 18 18 18 17 16 16 16 15 15 14 14 14 14 13 13 13 13 14 14 14 14 14 14 14 14 13 13 13 13 13 13 13 12 12 12 12 12 12 12 12
20 20 19 19 18 17 17 16 16 16 15 15 14 14 14 13 13 13 13 13 13 13 13 13 13 13 13 13 13 13 13 13 13 13 12 12 12 12 12 12 12 12 12
20 20 20 19 18 17 17 16 16 15 15 15 14 14 13 13 13 13 13 13 13 13 13 13 13 13 13 13 13 13 12 12 12 12 12 12 12 12 12 12 12 12 12
20 20 20 19 18 18 17 16 16 15 15 14 14 14 13 13 13 13 13 13 13 12 12 12 12 12 12 12 12 12 12 12 12 12 12 12 12 12 12 12 11 11 11
21 20 20 19 18 18 17 16 15 15 14 14 14 13 13 13 13 13 13 12 12 12 12 12 12 12 12 12 12 12 13 13 13 13 12 12 12 12 11 11 11 11 11
21 21 20 19 18 17 16 16 15 15 14 14 14 13 13 13 13 13 12 12 12 12 12 12 12 12 12 12 13 13 13 13 12 12 12 12 11 11 11 11 10 10 10
21 20 19 18 17 17 16 15 15 14 14 14 13 13 13 13 13 12 12 12 12 12 12 12 12 12 12 12 12 12 12 12 11 11 11 10 10 10 10 10 10 10 10
20 19 19 18 17 16 16 15 14 14 14 14 13 13 13 13 12 12 12 12 12 12 12 12 12 12 12 11 11 11 11 11 11 10 10 9 9 9 10 10 10 10 10
19 18 18 17 17 16 15 15 14 14 14 14 13 13 13 12 12 12 12 12 12 12 12 11 11 11 10 10 10 10 10 10 10 10 9 9 9 9 9 9 9 9 9
18 17 17 17 16 16 15 14 14 14 13 13 13 13 12 12 12 12 12 11 11 11 11 10 10 9 9 8 8 9 9 9 9 9 8 8 9 8 8 8 8 8 8
17 17 17 17 16 16 15 14 14 13 13 13 12 12 12 12 12 11 11 11 11 10 10 9 9 8 8 7 7 7 8 8 8 8 8 8 8 7 7 6 6 6 6
16 16 16 16 15 15 15 14 13 13 13 12 12 12 11 11 11 11 11 10 10 9 9 8 7 7 6 6 5 5 5 6 6 6 6 6 6 6 6 5 5 5 4
15 15 15 14 14 14 14 13 13 13 12 12 11 11 11 11 11 11 10 10 9 8 7 7 6 6 5 5 4 3 3 2 2 4 3 4 4 4 4 4 4 3 2
14 14 13 13 13 13 13 13 13 13 12 12 11 11 11 11 10 10 9 9 8 7 6 5 5 5 4 4 4 3 2 1 0 0 1 3 3 2 2 2 1 1 1
13 13 13 13 13 13 13 13 13 12 12 12 11 11 10 10 9 9 9 8 7 6 5 5 4 4 4 3 3 2 2 1 -0 -2 -2 -1 -0 1 1 1 0 0 -1
12 12 12 12 12 12 12 12 12 12 12 11 11 10 10 9 9 8 8 7 6 5 4 4 4 3 3 2 2 1 1 -1 -1 -2 -3 -3 -3 -3 -2 -1 -1 -1 -2
Wind_Speed
7 11 20 19 18 18 17 15 14 12 10 10 10 12 12 12 11 9 8 7 6 5 6 6 6 6 7 8 8 6 4 3 3 3 4 5 5 5 2 2 1 2 0
11 15 21 20 19 18 17 16 14 12 11 10 11 12 11 10 9 8 8 7 6 5 4 5 7 7 7 6 5 4 2 1 1 3 5 6 7 8 7 5 3 3 3
14 16 20 20 19 18 17 16 14 12 11 10 11 11 10 9 9 8 8 6 5 4 3 3 4 4 4 4 2 1 1 2 3 4 6 7 9 10 10 9 6 6 6
14 15 18 20 19 18 17 16 14 13 11 10 10 10 9 9 9 9 8 6 5 4 3 2 2 2 2 2 2 3 4 5 5 5 7 9 10 11 7 10 8 7 7
11 14 17 20 19 18 17 16 14 13 11 10 9 9 8 7 8 9 9 7 6 4 3 2 1 1 2 3 4 5 6 7 5 6 9 10 10 11 7 9 8 8 8
11 13 17 20 18 18 17 16 14 13 11 10 9 7 6 5 6 9 10 9 7 5 2 1 1 2 3 4 5 6 7 7 5 6 8 10 10 12 10 10 9 8 10
11 12 17 19 18 18 17 16 14 13 11 10 9 7 5 3 4 9 11 10 7 5 2 1 2 4 5 6 7 7 8 7 7 7 8 9 11 13 12 12 11 11 11
13 11 15 19 18 18 17 16 14 13 11 10 9 7 5 2 3 9 12 10 8 6 4 4 5 6 6 7 8 9 10 9 9 8 8 10 13 14 14 14 14 13 13
12 10 11 14 16 17 17 16 15 13 12 10 9 7 6 4 5 9 11 10 9 7 6 6 6 7 8 9 10 11 12 12 10 10 11 11 13 14 15 16 15 14 14
10 11 10 12 14 14 15 16 16 14 13 11 9 8 8 7 6 7 9 10 9 8 8 8 8 9 9 10 12 13 14 13 12 11 11 13 15 15 16 16 16 15 15
10 9 11 10 11 13 13 15 16 15 14 13 11 10 9 7 5 6 8 10 11 11 10 10 10 10 11 12 13 14 14 11 11 10 11 15 17 17 17 17 16 16 17
13 12 11 13 12 10 11 12 12 12 12 12 11 9 8 7 7 8 11 13 13 13 11 10 10 11 10 9 11 12 10 11 9 9 11 16 18 18 18 18 17 17 18
12 12 13 13 12 10 7 8 8 9 10 11 11 10 8 6 5 5 5 7 9 9 7 8 8 8 7 7 7 8 8 8 7 9 11 15 16 17 18 19 18 17 18
10 11 14 14 12 11 8 6 7 6 6 6 9 10 6 3 3 2 2 3 3 3 3 4 4 5 6 6 6 5 6 5 6 7 9 13 15 16 17 18 18 17 17
12 13 12 13 13 12 10 7 7 5 6 7 7 8 9 4 4 2 2 2 3 3 3 3 3 4 5 6 7 6 5 7 8 9 11 15 17 17 17 17 17 16 16
9 11 11 11 12 12 10 8 7 5 6 6 6 8 10 7 4 4 4 4 5 7 7 6 5 5 5 5 7 6 6 7 9 11 12 12 14 16 18 18 19 20 20
4 6 8 10 10 12 10 8 5 5 7 6 7 10 11 11 9 6 6 6 5 9 9 7 7 5 6 7 8 8 6 6 7 8 9 9 11 14 18 20 21 22 21
4 5 6 8 10 9 9 8 7 7 9 8 10 13 15 15 14 9 7 6 7 9 6 5 6 5 6 7 7 7 6 6 6 6 7 8 10 11 15 20 22 22 22
5 5 5 7 10 11 12 11 10 9 9 9 11 12 14 15 15 11 6 5 8 6 6 5 5 4 5 7 7 6 7 6 5 4 6 7 8 10 12 17 21 23 23
5 6 7 10 13 15 13 12 11 11 9 9 10 12 14 13 14 11 6 7 7 6 6 5 5 4 3 5 6 7 7 5 3 4 6 5 8 12 15 17 18 21 23
7 8 9 12 12 13 11 9 9 8 7 8 9 12 14 14 14 11 6 6 6 6 6 6 4 5 4 5 4 5 6 5 4 5 7 6 7 11 15 17 17 16 15
8 9 10 11 10 10 9 8 6 7 7 7 6 10 14 14 13 10 7 6 6 5 7 7 6 4 3 4 3 3 5 6 5 8 6 5 7 7 9 14 14 13 13
9 10 11 11 12 13 13 13 12 8 6 5 6 6 8 12 13 11 8 6 6 6 5 5 5 4 3 3 3 2 3 4 5 4 4 4 7 7 7 7 10 12 17
9 10 12 12 13 12 13 14 14 9 7 5 5 6 6 10 11 11 9 7 5 5 5 4 4 3 3 3 3 2 1 4 4 6 5 5 7 8 8 10 8 10 15
10 11 11 12 12 10 10 11 12 10 8 7 7 8 7 6 8 9 8 6 5 4 4 4 4 4 3 3 3 3 3 3 5 5 9 7 8 7 7 8 7 6 12
10 11 11 13 11 10 11 11 12 13 12 10 8 7 5 4 5 6 6 5 4 3 4 4 4 5 4 4 4 3 3 3 5 5 9 13 11 7 8 8 8 8 8
Wind_Direction
169 171 165 160 153 147 143 139 134 128 123 122 128 133 129 124 116 111 106 99 90 77 60 60 81 92 99 104 107 102 96 79 50 18 346 331 318 298 263 195 213 328 105
159 169 166 163 158 153 150 145 140 135 132 131 132 135 133 126 118 116 111 105 95 83 66 61 70 82 86 90 98 105 114 85 4 339 324 320 311 292 263 239 235 252 270
154 167 166 165 163 159 154 150 147 143 141 141 140 138 138 135 131 127 122 115 103 92 85 72 71 73 74 75 82 108 220 283 312 317 322 322 312 299 254 239 240 250 255
156 163 166 167 166 164 159 157 155 152 150 150 150 149 147 147 148 146 140 131 118 108 105 95 75 62 33 1 337 308 295 297 315 320 324 324 321 312 253 228 237 252 255
155 162 167 169 171 168 164 163 163 161 160 161 160 159 163 168 171 165 157 150 140 127 120 118 86 4 320 311 306 301 297 302 321 323 320 320 321 312 267 238 244 259 264
160 165 169 171 174 172 169 169 169 168 168 170 173 173 179 191 192 181 169 164 158 148 144 157 240 277 284 288 294 294 293 296 300 298 299 304 308 307 287 268 256 260 266
164 170 172 173 175 175 174 174 174 175 175 177 182 188 190 195 203 184 173 175 174 172 189 274 292 289 284 285 287 288 290 288 277 270 277 287 295 297 286 275 271 267 268
165 168 175 176 175 176 177 178 178 179 179 181 186 189 186 183 187 178 179 186 190 198 226 272 293 294 291 289 288 288 290 283 278 267 266 273 280 282 278 276 273 270 270
164 165 172 175 175 176 179 181 181 180 179 180 187 187 173 161 168 178 189 198 208 222 244 267 281 283 283 283 283 284 284 280 272 264 269 272 278 280 278 279 274 269 268
167 171 173 173 175 177 182 184 183 181 180 182 188 187 182 188 201 206 206 212 225 241 254 267 276 279 280 281 281 281 280 281 270 263 264 270 276 280 280 277 274 271 269
181 183 179 177 180 180 181 187 186 185 186 190 198 203 200 208 230 247 235 231 238 246 255 269 276 278 280 281 281 282 285 275 267 263 265 270 276 280 280 279 276 272 270
194 195 188 185 187 182 186 184 186 188 192 197 205 212 210 212 234 246 239 236 238 244 258 274 283 289 289 286 288 291 287 282 275 270 273 280 286 290 292 291 285 277 273
200 194 194 191 188 181 181 175 183 190 196 204 212 219 216 217 242 247 234 244 249 261 274 288 302 309 307 297 293 292 287 284 278 279 283 292 301 308 311 310 306 298 290
208 201 193 193 190 185 179 178 182 187 195 203 211 218 197 177 187 185 199 246 266 285 300 311 320 329 337 336 327 319 318 313 307 305 306 314 323 326 325 320 316 312 308
208 207 194 186 187 182 177 179 181 187 197 201 196 192 169 149 146 123 99 67 35 26 25 22 14 11 9 3 1 354 340 341 341 341 337 338 343 347 347 341 336 334 333
209 207 192 181 177 170 171 172 173 177 175 158 150 146 139 128 113 93 71 55 44 42 45 45 31 26 16 3 357 347 340 346 346 346 345 353 4 14 19 19 15 10 3
183 181 179 174 164 162 161 155 140 127 122 110 103 101 99 95 89 81 69 56 43 46 47 44 28 28 20 7 350 341 339 344 344 343 352 8 12 18 20 18 13 7 1
148 137 154 162 153 144 128 114 106 101 99 94 91 86 85 85 86 80 72 59 51 49 40 40 25 19 13 359 340 327 329 332 337 348 9 11 10 14 16 14 9 2 357
156 146 133 133 133 122 111 102 96 94 91 92 89 86 84 83 85 83 73 60 57 50 37 33 30 23 7 351 329 316 318 323 329 4 6 4 8 14 15 7 3 357 354
135 131 124 122 123 119 111 104 98 89 86 83 83 83 82 80 80 79 71 56 55 51 36 26 19 13 3 342 324 314 305 308 325 360 359 358 5 10 9 2 358 351 350
114 117 121 126 130 127 124 117 111 101 94 85 78 77 77 75 72 70 66 54 50 54 43 28 13 6 353 349 342 319 314 328 347 334 350 355 2 3 357 352 347 340 341
126 120 121 124 123 122 118 113 110 111 97 86 78 70 70 70 68 70 65 61 52 52 41 33 27 10 344 2 348 323 332 331 341 332 318 341 357 350 338 335 329 328 333
131 131 129 124 120 120 119 116 114 102 88 76 74 71 65 72 70 68 65 63 54 52 40 26 27 26 343 327 349 35 0 312 310 298 316 343 336 320 318 321 315 322 321
135 127 126 125 123 124 125 131 132 130 123 118 112 97 76 71 70 66 64 60 52 46 34 11 22 2 348 334 332 22 246 251 293 309 306 306 304 308 301 305 304 301 303
131 126 125 122 119 115 114 121 119 115 115 117 108 98 81 65 63 63 60 54 42 31 19 7 358 353 344 326 320 310 295 269 240 266 295 303 305 295 292 287 287 286 294
123 121 122 120 114 113 112 112 121 125 127 124 117 109 92 73 54 48 53 46 33 16 359 350 345 343 335 329 319 310 307 302 306 292 299 306 302 292 284 281 286 289 292
Height
1503 1503 1505 1506 1507 1508 1508 1508 1509 1509 1509 1508 1509 1510 1510 1511 1511 1511 1511 1510 1510 1510 1510 1510 1510 1511 1511 1511 1510 1510 1510 1509 1508 1508 1506 1506 1506 1505 1506 1506 1506 1506 1506
1502 1502 1504 1505 1506 1507 1508 1508 1508 1508 1507 1507 1508 1508 1509 1510 1510 1510 1510 1510 1509 1509 1509 1510 1510 1510 1510 1510 1509 1509 1508 1508 1507 1506 1505 1504 1504 1504 1504 1504 1505 1505 1505
1501 1501 1503 1504 1506 1507 1507 1507 1507 1507 1507 1506 1507 1508 1509 1509 1510 1510 1510 1510 1509 1509 1509 1509 1509 1509 1509 1509 1509 1508 1507 1507 1506 1505 1504 1504 1503 1503 1503 1503 1503 1504 1504
1501 1501 1502 1504 1505 1506 1506 1507 1507 1506 1506 1506 1506 1507 1508 1509 1510 1510 1510 1510 1509 1509 1508 1508 1508 1508 1508 1508 1508 1507 1507 1506 1505 1504 1504 1503 1502 1502 1502 1502 1502 1502 1502
1501 1501 1502 1503 1505 1505 1506 1506 1506 1506 1506 1506 1506 1507 1508 1509 1510 1510 1510 1510 1510 1509 1508 1508 1507 1507 1507 1507 1507 1506 1505 1505 1504 1503 1502 1502 1501 1501 1501 1502 1501 1501 1501
1501 1501 1502 1503 1504 1505 1505 1506 1506 1506 1505 1506 1506 1506 1508 1509 1509 1510 1510 1510 1510 1509 1508 1507 1507 1507 1506 1506 1506 1505 1505 1504 1503 1502 1502 1501 1500 1499 1499 1500 1500 1499 1499
1501 1501 1502 1503 1504 1504 1505 1505 1505 1505 1505 1505 1506 1506 1507 1508 1509 1510 1510 1510 1510 1509 1508 1508 1507 1507 1506 1506 1505 1505 1504 1504 1503 1502 1501 1500 1499 1498 1498 1498 1498 1498 1497
1501 1501 1501 1502 1503 1503 1504 1504 1504 1504 1505 1505 1505 1506 1507 1508 1509 1510 1510 1510 1509 1509 1508 1508 1508 1507 1507 1506 1506 1505 1505 1504 1503 1502 1500 1499 1498 1497 1496 1496 1496 1495 1495
1500 1500 1501 1501 1502 1503 1503 1504 1504 1504 1504 1505 1505 1505 1506 1507 1508 1509 1509 1509 1509 1509 1508 1508 1508 1507 1507 1506 1506 1505 1504 1503 1502 1501 1499 1498 1497 1496 1495 1494 1493 1493 1492
1499 1499 1500 1500 1501 1501 1502 1503 1503 1503 1504 1504 1505 1505 1505 1506 1508 1509 1509 1509 1509 1509 1508 1508 1507 1507 1506 1506 1505 1504 1503 1502 1501 1499 1498 1496 1495 1494 1492 1491 1491 1490 1489
1497 1498 1499 1499 1500 1500 1501 1502 1502 1503 1503 1504 1505 1505 1505 1506 1507 1508 1508 1509 1508 1508 1507 1507 1507 1506 1505 1504 1503 1502 1501 1500 1498 1497 1495 1494 1492 1491 1489 1489 1488 1487 1486
1495 1496 1497 1497 1498 1499 1500 1500 1501 1502 1503 1503 1504 1505 1505 1506 1507 1507 1508 1508 1507 1507 1506 1506 1505 1504 1503 1502 1501 1500 1499 1497 1495 1494 1492 1490 1489 1487 1486 1486 1485 1483 1482
1493 1493 1494 1495 1496 1497 1498 1499 1500 1501 1502 1503 1504 1505 1505 1506 1506 1506 1507 1507 1507 1506 1505 1505 1504 1502 1501 1500 1498 1497 1495 1494 1492 1490 1489 1487 1485 1483 1482 1481 1480 1479 1478
1490 1490 1491 1492 1493 1494 1496 1498 1499 1500 1502 1502 1503 1504 1505 1505 1505 1506 1506 1506 1505 1504 1503 1502 1501 1500 1499 1497 1496 1495 1493 1491 1489 1488 1486 1484 1482 1480 1478 1476 1475 1474 1473
1486 1487 1488 1489 1490 1492 1494 1496 1498 1499 1501 1502 1502 1503 1504 1504 1505 1505 1505 1505 1504 1503 1502 1500 1499 1498 1497 1495 1494 1492 1491 1489 1487 1484 1482 1480 1478 1475 1473 1472 1470 1469 1468
1482 1483 1484 1486 1488 1489 1491 1494 1496 1498 1500 1501 1501 1502 1503 1504 1505 1505 1504 1503 1502 1501 1500 1499 1497 1496 1494 1493 1491 1490 1488 1485 1483 1480 1478 1476 1474 1472 1470 1468 1466 1464 1463
1477 1478 1480 1483 1485 1487 1490 1492 1494 1496 1497 1499 1500 1501 1502 1503 1503 1503 1503 1502 1501 1500 1499 1498 1496 1494 1492 1490 1488 1486 1483 1481 1478 1476 1473 1471 1470 1468 1466 1464 1463 1461 1459
1473 1474 1476 1479 1482 1485 1488 1490 1491 1493 1495 1497 1499 1500 1501 1502 1502 1502 1502 1501 1500 1499 1498 1496 1494 1491 1488 1486 1483 1481 1479 1476 1473 1471 1469 1468 1466 1465 1463 1460 1458 1456 1454
1469 1471 1473 1476 1479 1482 1484 1486 1489 1491 1494 1496 1498 1499 1500 1500 1501 1501 1501 1500 1500 1498 1496 1493 1490 1487 1484 1481 1479 1477 1474 1471 1469 1468 1466 1465 1463 1460 1458 1455 1453 1450 1448
1465 1466 1469 1472 1474 1477 1480 1483 1487 1490 1493 1495 1497 1498 1499 1500 1500 1500 1500 1499 1498 1496 1493 1490 1487 1484 1481 1477 1475 1472 1469 1467 1465 1464 1462 1461 1459 1456 1453 1450 1447 1444 1441
1461 1462 1464 1467 1470 1473 1476 1480 1484 1488 1491 1493 1495 1497 1498 1499 1499 1499 1499 1498 1496 1493 1490 1487 1484 1481 1478 1474 1470 1465 1464 1463 1460 1459 1459 1457 1454 1451 1448 1444 1441 1438 1434
1458 1459 1461 1464 1467 1471 1475 1479 1484 1487 1490 1492 1494 1496 1497 1498 1498 1498 1497 1495 1493 1490 1487 1484 1481 1478 1475 1471 1467 1462 1458 1456 1455 1455 1452 1450 1448 1445 1441 1438 1434 1431 1427
1456 1457 1460 1463 1467 1471 1475 1479 1482 1485 1488 1491 1493 1494 1495 1496 1496 1496 1494 1493 1490 1487 1484 1481 1478 1476 1473 1470 1467 1464 1460 1454 1448 1444 1444 1442 1440 1437 1434 1431 1427 1424 1420
1454 1457 1460 1463 1467 1471 1474 1477 1480 1483 1486 1489 1491 1493 1494 1494 1494 1493 1492 1490 1488 1485 1482 1480 1477 1474 1471 1467 1465 1462 1461 1456 1451 1441 1436 1434 1432 1429 1426 1423 1420 1417 1413
1452 1455 1459 1463 1466 1470 1473 1477 1480 1483 1485 1488 1490 1492 1493 1493 1492 1491 1490 1488 1485 1483 1480 1478 1475 1472 1468 1465 1462 1458 1455 1452 1449 1443 1432 1426 1424 1422 1419 1416 1413 1409 1406
1450 1455 1458 1462 1465 1469 1473 1476 1480 1482 1484 1486 1489 1490 1491 1491 1490 1489 1487 1485 1483 1480 1478 1475 1472 1469 1465 1462 1458 1455 1451 1448 1443 1438 1429 1420 1415 1412 1411 1408 1405 1402 1398